Find Local Weather

World > North America > United States > New Jersey

Woodbine, New Jersey Regional Weather

Lat: 39.23N, Lon: 74.81W
Wx Zone: NJZ023
Feedback

Woodbine, NJ Regional Weather

Expires:201905192100;;131103
ASUS41 KPHI 192012
RWRPHI

REGIONAL WEATHER ROUNDUP
NATIONAL WEATHER SERVICE MOUNT HOLLY NJ
400 PM EDT SUN MAY 19 2019

NOTE:  "FAIR" INDICATES FEW OR NO CLOUDS BELOW 12,000 FEET WITH NO
SIGNIFICANT WEATHER AND/OR OBSTRUCTIONS TO VISIBILITY.

 * = STATION DOES NOT REPORT PRECIPITATION (E.G. RAIN, SNOW, ETC.) 
        OR FOG.


NJZ015>026-192100-
SOUTHERN NEW JERSEY
  
CITY           SKY/WX    TMP DP  RH WIND       PRES   REMARKS
POMONA         CLOUDY    75  69  81 S15G25    30.01F                  
WILDWOOD*      CLOUDY    77  69  76 S20G28    30.01F                  
MILLVILLE      FAIR      78  70  76 S12G25    29.97F                  
WRIGHTSTOWN    FAIR      84  69  60 S14G22    29.93F                  
MOUNT HOLLY    FAIR      84  71  65 VRB6      29.95F                  
TRENTON        FAIR      83  69  62 S15       29.93F                  

$$

SKY/WX - Weather  TMP - Temperature  DP - Dew Point  RH - Relative Humidity
WIND - Wind Direction/Speed PRES - Barometric Pressure VSB - Visibility
WCI - Wind Chill Index E13G22 Wind - East Wind 13 mph/Gusts of 22 mph